• Em Portugal
  • Lista de países
  • Para 7 dias
  • Temperatura da água
  • Mapas de satélite
  • Mapa do tempo
  • Widgets de tempo
  • user-avatar
    Iniciar Sessão

    Previsão horária em Boskino

    Hoje, 18 Julho, Quarta-feira

    Tempo Temperatura Precipitação Vento Pressão Humidade
    00:00 +20°C° 0 mm 3 m/s 749 mmHg 75%
    01:00 +19°C° 0 mm 3 m/s 749 mmHg 76%
    02:00 +19°C° 0 mm 3 m/s 749 mmHg 78%
    03:00 +19°C° 0 mm 3 m/s 749 mmHg 78%
    04:00 +19°C° 0 mm 3 m/s 749 mmHg 79%
    05:00 +18°C° 0 mm 3 m/s 749 mmHg 80%
    06:00 +20°C° 0 mm 3 m/s 749 mmHg 75%
    07:00 +22°C° 0 mm 4 m/s 749 mmHg 70%
    08:00 +23°C° 0 mm 4 m/s 748 mmHg 65%
    09:00 +25°C° 0 mm 4 m/s 748 mmHg 60%
    10:00 +27°C° 0 mm 5 m/s 748 mmHg 55%
    11:00 +28°C° 0 mm 5 m/s 748 mmHg 50%
    12:00 +28°C° 0,4 mm 5 m/s 748 mmHg 51%
    13:00 +28°C° 0,4 mm 5 m/s 747 mmHg 52%
    14:00 +29°C° 0,4 mm 5 m/s 747 mmHg 54%
    15:00 +28°C° 0,2 mm 5 m/s 747 mmHg 56%
    16:00 +27°C° 0,2 mm 4 m/s 747 mmHg 58%
    17:00 +27°C° 0,2 mm 3 m/s 747 mmHg 61%
    18:00 +25°C° 0,2 mm 3 m/s 747 mmHg 69%
    19:00 +23°C° 0,2 mm 2 m/s 747 mmHg 76%
    20:00 +21°C° 0,2 mm 2 m/s 747 mmHg 84%
    21:00 +20°C° 0,7 mm 2 m/s 747 mmHg 87%
    22:00 +20°C° 0,7 mm 2 m/s 747 mmHg 91%
    23:00 +19°C° 0,7 mm 2 m/s 747 mmHg 94%

    Amanhã, 19 Julho, Quinta-feira

    Tempo Temperatura Precipitação Vento Pressão Humidade
    00:00 +19°C° 0,1 mm 3 m/s 747 mmHg 94%
    01:00 +19°C° 0,1 mm 3 m/s 747 mmHg 95%
    02:00 +19°C° 0,1 mm 3 m/s 747 mmHg 95%
    03:00 +19°C° 0,5 mm 3 m/s 747 mmHg 95%
    04:00 +19°C° 0,5 mm 3 m/s 747 mmHg 96%
    05:00 +19°C° 0,5 mm 3 m/s 747 mmHg 96%
    06:00 +19°C° 0,2 mm 3 m/s 747 mmHg 95%
    07:00 +20°C° 0,2 mm 3 m/s 747 mmHg 93%
    08:00 +20°C° 0,2 mm 3 m/s 747 mmHg 92%
    09:00 +21°C° 0,1 mm 3 m/s 747 mmHg 89%
    10:00 +21°C° 0,1 mm 3 m/s 747 mmHg 86%
    11:00 +22°C° 0,1 mm 3 m/s 747 mmHg 84%
    12:00 +23°C° 0,3 mm 4 m/s 747 mmHg 79%
    13:00 +25°C° 0,3 mm 4 m/s 747 mmHg 74%
    14:00 +26°C° 0,3 mm 4 m/s 747 mmHg 69%
    15:00 +26°C° 0,2 mm 4 m/s 747 mmHg 70%
    16:00 +27°C° 0,2 mm 3 m/s 747 mmHg 71%
    17:00 +27°C° 0,2 mm 3 m/s 747 mmHg 72%
    18:00 +25°C° 0,1 mm 3 m/s 747 mmHg 77%
    19:00 +24°C° 0,1 mm 3 m/s 747 mmHg 83%
    20:00 +23°C° 0,1 mm 2 m/s 747 mmHg 88%
    21:00 +21°C° 0 mm 2 m/s 747 mmHg 91%
    22:00 +21°C° 0 mm 2 m/s 747 mmHg 94%
    23:00 +20°C° 0 mm 2 m/s 747 mmHg 96%

    Depois de amanhã, 20 Julho, Sexta-feira

    Tempo Temperatura Precipitação Vento Pressão Humidade
    00:00 +20°C° 0 mm 2 m/s 747 mmHg 97%
    01:00 +19°C° 0 mm 2 m/s 747 mmHg 97%
    02:00 +19°C° 0 mm 2 m/s 746 mmHg 98%
    03:00 +19°C° 0 mm 3 m/s 746 mmHg 97%
    04:00 +19°C° 0 mm 3 m/s 746 mmHg 97%
    05:00 +19°C° 0 mm 3 m/s 746 mmHg 96%
    06:00 +20°C° 0,1 mm 3 m/s 746 mmHg 94%
    07:00 +20°C° 0,1 mm 3 m/s 746 mmHg 92%
    08:00 +21°C° 0,1 mm 3 m/s 747 mmHg 90%
    09:00 +22°C° 0,2 mm 4 m/s 747 mmHg 88%
    10:00 +22°C° 0,2 mm 4 m/s 747 mmHg 85%
    11:00 +23°C° 0,2 mm 4 m/s 747 mmHg 83%
    12:00 +23°C° 0,4 mm 4 m/s 747 mmHg 82%
    13:00 +23°C° 0,4 mm 4 m/s 746 mmHg 80%
    14:00 +25°C° 0,4 mm 4 m/s 746 mmHg 79%
    15:00 +25°C° 0,4 mm 4 m/s 746 mmHg 79%
    16:00 +25°C° 0,4 mm 4 m/s 746 mmHg 79%
    17:00 +25°C° 0,4 mm 3 m/s 746 mmHg 79%
    18:00 +24°C° 0,1 mm 3 m/s 746 mmHg 82%
    19:00 +22°C° 0,1 mm 3 m/s 746 mmHg 85%
    20:00 +21°C° 0,1 mm 3 m/s 746 mmHg 87%
    21:00 +20°C° 0 mm 2 m/s 746 mmHg 90%
    22:00 +19°C° 0 mm 2 m/s 746 mmHg 93%
    23:00 +18°C° 0 mm 2 m/s 746 mmHg 96%

    21 Julho, Sábado

    Tempo Temperatura Precipitação Vento Pressão Humidade
    00:00 +18°C° 0 mm 2 m/s 746 mmHg 97%
    01:00 +18°C° 0 mm 2 m/s 746 mmHg 97%
    02:00 +17°C° 0 mm 2 m/s 746 mmHg 98%
    03:00 +17°C° 0 mm 2 m/s 746 mmHg 97%
    04:00 +18°C° 0 mm 2 m/s 746 mmHg 97%
    05:00 +18°C° 0 mm 2 m/s 746 mmHg 96%
    06:00 +19°C° 0 mm 2 m/s 746 mmHg 92%
    07:00 +20°C° 0 mm 2 m/s 746 mmHg 88%
    08:00 +21°C° 0 mm 2 m/s 746 mmHg 84%
    09:00 +23°C° 0 mm 2 m/s 746 mmHg 80%
    10:00 +24°C° 0 mm 2 m/s 746 mmHg 76%
    11:00 +25°C° 0 mm 2 m/s 746 mmHg 72%
    12:00 +26°C° 0,3 mm 2 m/s 745 mmHg 72%
    13:00 +26°C° 0,3 mm 1 m/s 745 mmHg 72%
    14:00 +26°C° 0,3 mm 1 m/s 745 mmHg 72%
    15:00 +26°C° 0,5 mm 1 m/s 745 mmHg 73%
    16:00 +26°C° 0,5 mm 1 m/s 745 mmHg 74%
    17:00 +27°C° 0,5 mm 2 m/s 744 mmHg 75%
    18:00 +25°C° 0,6 mm 1 m/s 744 mmHg 81%
    19:00 +24°C° 0,6 mm 1 m/s 744 mmHg 87%
    20:00 +23°C° 0,6 mm 1 m/s 744 mmHg 92%
    21:00 +22°C° 0,4 mm 1 m/s 744 mmHg 94%
    22:00 +21°C° 0,4 mm 1 m/s 744 mmHg 96%
    23:00 +21°C° 0,4 mm 1 m/s 744 mmHg 97%

    22 Julho, Domingo

    Tempo Temperatura Precipitação Vento Pressão Humidade
    00:00 +21°C° 0,2 mm 1 m/s 744 mmHg 98%
    01:00 +20°C° 0,2 mm 1 m/s 743 mmHg 98%
    02:00 +20°C° 0,2 mm 1 m/s 743 mmHg 98%
    03:00 +20°C° 1,2 mm 1 m/s 743 mmHg 98%
    04:00 +20°C° 1,2 mm 1 m/s 743 mmHg 98%
    05:00 +21°C° 1,2 mm 1 m/s 743 mmHg 99%
    06:00 +21°C° 0,7 mm 1 m/s 743 mmHg 97%
    07:00 +22°C° 0,7 mm 1 m/s 743 mmHg 96%
    08:00 +23°C° 0,7 mm 1 m/s 743 mmHg 95%
    09:00 +23°C° 0,2 mm 1 m/s 743 mmHg 92%
    10:00 +24°C° 0,2 mm 1 m/s 743 mmHg 90%
    11:00 +25°C° 0,2 mm 1 m/s 742 mmHg 88%
    12:00 +25°C° 0,3 mm 1 m/s 742 mmHg 84%
    13:00 +26°C° 0,3 mm 1 m/s 742 mmHg 81%
    14:00 +26°C° 0,3 mm 1 m/s 742 mmHg 77%
    15:00 +27°C° 0,3 mm 1 m/s 742 mmHg 77%
    16:00 +27°C° 0,3 mm 1 m/s 742 mmHg 76%
    17:00 +27°C° 0,3 mm 1 m/s 742 mmHg 76%
    18:00 +25°C° 0,7 mm 1 m/s 742 mmHg 82%
    19:00 +24°C° 0,7 mm 1 m/s 742 mmHg 88%
    20:00 +23°C° 0,7 mm 2 m/s 742 mmHg 94%
    21:00 +21°C° 0,4 mm 2 m/s 742 mmHg 95%
    22:00 +20°C° 0,4 mm 2 m/s 743 mmHg 96%
    23:00 +20°C° 0,4 mm 2 m/s 743 mmHg 98%

    23 Julho, Segunda-feira

    Tempo Temperatura Precipitação Vento Pressão Humidade
    00:00 +20°C° 0,8 mm 3 m/s 743 mmHg 98%
    01:00 +19°C° 0,8 mm 3 m/s 743 mmHg 98%
    02:00 +19°C° 0,8 mm 3 m/s 743 mmHg 98%
    03:00 +19°C° 0,3 mm 3 m/s 744 mmHg 97%
    04:00 +18°C° 0,3 mm 3 m/s 744 mmHg 97%
    05:00 +18°C° 0,3 mm 3 m/s 744 mmHg 97%
    06:00 +18°C° 0,1 mm 3 m/s 744 mmHg 96%
    07:00 +17°C° 0,1 mm 3 m/s 744 mmHg 95%
    08:00 +17°C° 0,1 mm 3 m/s 745 mmHg 95%
    09:00 +18°C° 0 mm 3 m/s 745 mmHg 89%
    10:00 +19°C° 0 mm 3 m/s 745 mmHg 83%
    11:00 +19°C° 0 mm 3 m/s 746 mmHg 77%
    12:00 +21°C° 0 mm 3 m/s 746 mmHg 69%
    13:00 +24°C° 0 mm 3 m/s 746 mmHg 61%
    14:00 +26°C° 0 mm 3 m/s 746 mmHg 52%
    15:00 +26°C° 0 mm 3 m/s 746 mmHg 53%
    16:00 +26°C° 0 mm 3 m/s 746 mmHg 53%
    17:00 +26°C° 0 mm 2 m/s 746 mmHg 54%
    18:00 +24°C° 0 mm 2 m/s 747 mmHg 62%
    19:00 +23°C° 0 mm 2 m/s 747 mmHg 70%
    20:00 +21°C° 0 mm 1 m/s 747 mmHg 77%
    21:00 +20°C° 0 mm 1 m/s 747 mmHg 80%
    22:00 +19°C° 0 mm 1 m/s 748 mmHg 83%
    23:00 +18°C° 0 mm 1 m/s 748 mmHg 86%
    Mostrar mais